World > North America > United States > Texas

New Caney, Texas Regional Weather

Lat: 30.16N, Lon: 95.21W
Wx Zone: TXZ199Web Search

If you are on your PC, you can easily pass this page to your phone by scanning the QR Code near the bottom with your camera.

Feedback


°F Click to change New Caney hourly weather to Imperial units.Click to change New Caney hourly weather to Metric units. °C
New Caney Weather Map
UTC Time: 4/16/2021, 23:08
Your Time:

New Caney, TX Regional Weather

Expires:202104170000;;661205
ASUS44 KSJT 162302
RWRSJT
WEST CENTRAL TEXAS REGIONAL WEATHER ROUNDUP
NATIONAL WEATHER SERVICE SAN ANGELO TX
600 PM CDT FRI APR 16 2021

NOTE: "FAIR" INDICATES FEW OR NO CLOUDS BELOW 12,000 FEET WITH NO
SIGNIFICANT WEATHER AND/OR OBSTRUCTIONS TO VISIBILITY.


TXZ163-177-195>197-199-213-226-237-170000-
SOUTHEAST TEXAS
  
CITY           SKY/WX    TMP DP  RH WIND       PRES   REMARKS
COLLEGE STN    LGT RAIN  65  62  90 N8        29.78R FOG              
CALDWELL       CLOUDY    64  63  95 N9        29.80R                  
CROCKETT       NOT AVBL                                               
BRENHAM        LGT RAIN  67  66  96 N12       29.77R                  
HUNTSVILLE     LGT RAIN  65  64  97 N8        29.78R FOG              
CONROE         LGT RAIN  69  67  93 NW5       29.76R FOG              
HOUSTON BUSH   HVY RAIN  70  68  93 N10       29.72R FOG              
HOUSTON HOBBY  CLOUDY    73  70  90 E3        29.70S FOG              
PERLAND        LGT RAIN  73  71  93 S5        29.71S FOG              
WHARTON        CLOUDY    73  71  94 CALM      29.70S                  
$$


SKY/WX - Weather  TMP - Temperature  DP - Dew Point  RH - Relative Humidity
WIND - Wind Direction/Speed PRES - Barometric Pressure VSB - Visibility
WCI - Wind Chill Index E13G22 Wind - East Wind 13 mph/Gusts of 22 mph